TimeCST,TemperatureF,Dew PointF,Humidity,Sea Level PressureIn,VisibilityMPH,Wind Direction,Wind SpeedMPH,Gust SpeedMPH,PrecipitationIn,Events,Conditions,WindDirDegrees,DateUTC
12:15 AM,34.2,32.0,92,29.74,10.0,South,5.8,-,N/A,,Overcast,170,2013-02-14 06:15:00
12:35 AM,34.3,32.0,91,29.74,10.0,South,6.9,-,N/A,,Overcast,170,2013-02-14 06:35:00
12:55 AM,34.7,32.0,90,29.73,10.0,South,5.8,-,N/A,,Mostly Cloudy,170,2013-02-14 06:55:00
1:15 AM,34.7,32.0,90,29.73,10.0,South,3.5,-,N/A,,Overcast,180,2013-02-14 07:15:00
1:35 AM,35.8,32.0,86,29.72,10.0,South,4.6,-,N/A,,Overcast,170,2013-02-14 07:35:00
1:55 AM,34.9,32.0,89,29.71,10.0,South,5.8,-,N/A,,Overcast,170,2013-02-14 07:55:00
2:15 AM,35.6,32.0,87,29.71,10.0,South,5.8,-,N/A,,Overcast,170,2013-02-14 08:15:00
2:35 AM,36.1,32.2,86,29.71,10.0,SSW,8.1,-,N/A,,Overcast,210,2013-02-14 08:35:00
2:55 AM,37.4,32.0,81,29.70,10.0,SW,8.1,-,N/A,,Overcast,220,2013-02-14 08:55:00
3:15 AM,37.8,32.0,80,29.68,10.0,South,11.5,-,N/A,,Overcast,190,2013-02-14 09:15:00
3:35 AM,37.6,32.0,80,29.67,10.0,South,11.5,-,N/A,,Overcast,180,2013-02-14 09:35:00
3:55 AM,38.3,32.0,78,29.66,10.0,South,10.4,-,N/A,,Overcast,180,2013-02-14 09:55:00
4:15 AM,38.1,32.0,79,29.66,10.0,SSW,11.5,-,N/A,,Overcast,200,2013-02-14 10:15:00
4:35 AM,37.6,32.0,80,29.67,10.0,SSW,13.8,-,N/A,,Overcast,200,2013-02-14 10:35:00
4:55 AM,37.4,32.0,81,29.67,10.0,SSW,12.7,-,N/A,,Overcast,210,2013-02-14 10:55:00
5:15 AM,37.4,32.0,81,29.67,10.0,SSW,12.7,-,N/A,,Overcast,210,2013-02-14 11:15:00
5:35 AM,36.5,32.0,84,29.67,10.0,SSW,12.7,-,N/A,,Overcast,210,2013-02-14 11:35:00
5:55 AM,35.6,32.0,87,29.67,10.0,SSW,10.4,-,N/A,,Scattered Clouds,210,2013-02-14 11:55:00
6:15 AM,35.2,31.8,87,29.67,10.0,SSW,9.2,-,N/A,,Clear,210,2013-02-14 12:15:00
6:35 AM,35.6,32.0,87,29.68,10.0,SW,10.4,-,N/A,,Clear,230,2013-02-14 12:35:00
6:55 AM,36.5,32.0,84,29.68,10.0,WSW,11.5,-,N/A,,Clear,240,2013-02-14 12:55:00
7:15 AM,36.5,32.0,84,29.68,10.0,WSW,15.0,-,N/A,,Clear,240,2013-02-14 13:15:00
7:35 AM,36.0,32.0,86,29.69,10.0,WSW,13.8,-,N/A,,Clear,240,2013-02-14 13:35:00
7:55 AM,35.6,32.0,87,29.70,10.0,WSW,11.5,-,N/A,,Scattered Clouds,240,2013-02-14 13:55:00
8:15 AM,36.5,32.0,84,29.71,10.0,WSW,12.7,-,N/A,,Mostly Cloudy,240,2013-02-14 14:15:00
8:35 AM,37.0,32.0,82,29.71,10.0,WSW,12.7,-,N/A,,Overcast,240,2013-02-14 14:35:00
8:55 AM,37.8,32.0,80,29.71,10.0,WSW,13.8,-,N/A,,Overcast,240,2013-02-14 14:55:00
9:15 AM,37.8,32.0,80,29.72,10.0,WSW,16.1,24.2,N/A,,Overcast,250,2013-02-14 15:15:00
9:35 AM,37.6,32.0,80,29.73,10.0,West,19.6,23.0,N/A,,Overcast,260,2013-02-14 15:35:00
9:55 AM,37.6,31.1,77,29.73,10.0,West,20.7,29.9,N/A,,Overcast,270,2013-02-14 15:55:00
10:15 AM,37.6,30.6,76,29.73,10.0,West,18.4,-,N/A,,Overcast,260,2013-02-14 16:15:00
10:35 AM,38.3,31.8,77,29.74,10.0,West,18.4,24.2,N/A,,Overcast,260,2013-02-14 16:35:00
10:55 AM,38.7,31.5,75,29.74,10.0,West,24.2,28.8,N/A,,Overcast,270,2013-02-14 16:55:00
11:15 AM,39.4,31.6,74,29.75,10.0,West,21.9,31.1,N/A,,Overcast,270,2013-02-14 17:15:00
11:35 AM,38.8,31.8,76,29.76,10.0,West,23.0,31.1,N/A,,Overcast,270,2013-02-14 17:35:00
11:55 AM,38.3,31.8,77,29.76,10.0,West,18.4,29.9,N/A,,Overcast,270,2013-02-14 17:55:00
12:15 PM,38.3,31.6,77,29.77,10.0,West,20.7,27.6,N/A,,Overcast,270,2013-02-14 18:15:00
12:35 PM,38.3,32.0,78,29.76,10.0,West,19.6,28.8,N/A,,Overcast,270,2013-02-14 18:35:00
12:55 PM,38.3,32.0,78,29.77,10.0,West,21.9,27.6,N/A,,Overcast,270,2013-02-14 18:55:00
1:15 PM,39.0,32.2,76,29.77,10.0,West,20.7,28.8,N/A,,Overcast,280,2013-02-14 19:15:00
1:35 PM,39.7,32.2,74,29.77,10.0,WNW,21.9,-,N/A,,Overcast,290,2013-02-14 19:35:00
1:55 PM,40.1,32.0,73,29.79,10.0,West,23.0,29.9,N/A,,Overcast,280,2013-02-14 19:55:00
2:15 PM,39.7,32.0,74,29.81,10.0,West,18.4,27.6,N/A,,Overcast,280,2013-02-14 20:15:00
2:35 PM,40.6,31.5,70,29.82,10.0,WNW,21.9,26.5,N/A,,Overcast,290,2013-02-14 20:35:00
2:55 PM,40.1,30.2,68,29.83,10.0,WNW,19.6,28.8,N/A,,Overcast,300,2013-02-14 20:55:00
3:15 PM,39.6,30.6,70,29.84,10.0,WNW,16.1,-,N/A,,Overcast,290,2013-02-14 21:15:00
3:35 PM,40.1,31.3,71,29.85,10.0,West,16.1,20.7,N/A,,Overcast,280,2013-02-14 21:35:00
3:55 PM,40.1,30.6,69,29.86,10.0,WNW,15.0,21.9,N/A,,Overcast,290,2013-02-14 21:55:00
4:15 PM,39.6,29.3,67,29.87,10.0,WNW,20.7,26.5,N/A,,Overcast,290,2013-02-14 22:15:00
4:35 PM,39.0,30.9,73,29.89,10.0,WNW,10.4,17.3,N/A,,Overcast,300,2013-02-14 22:35:00
4:55 PM,38.3,29.7,71,29.90,10.0,WNW,11.5,-,N/A,,Overcast,300,2013-02-14 22:55:00
5:15 PM,37.4,30.2,75,29.91,10.0,NW,8.1,-,N/A,,Overcast,310,2013-02-14 23:15:00
5:35 PM,36.9,28.0,70,29.92,10.0,NW,10.4,-,N/A,,Overcast,310,2013-02-14 23:35:00
5:55 PM,35.6,28.0,74,29.93,10.0,NW,6.9,-,N/A,,Overcast,310,2013-02-14 23:55:00
6:15 PM,33.4,27.9,80,29.94,10.0,WNW,6.9,-,N/A,,Mostly Cloudy,300,2013-02-15 00:15:00
6:35 PM,32.7,27.7,82,29.95,10.0,NW,4.6,-,N/A,,Mostly Cloudy,310,2013-02-15 00:35:00
6:55 PM,33.1,28.0,82,29.96,10.0,West,3.5,-,N/A,,Mostly Cloudy,280,2013-02-15 00:55:00
7:15 PM,33.3,28.4,82,29.96,10.0,Calm,Calm,-,N/A,,Overcast,0,2013-02-15 01:15:00
7:35 PM,32.9,28.4,84,29.96,10.0,Calm,Calm,-,N/A,,Overcast,0,2013-02-15 01:35:00
7:55 PM,33.8,28.4,81,29.96,10.0,Calm,Calm,-,N/A,,Overcast,0,2013-02-15 01:55:00
8:15 PM,33.3,28.6,83,29.96,10.0,Calm,Calm,-,N/A,,Overcast,0,2013-02-15 02:15:00
8:35 PM,33.3,29.1,85,29.97,10.0,West,3.5,-,N/A,,Overcast,260,2013-02-15 02:35:00
8:55 PM,32.9,28.9,85,29.97,10.0,WSW,3.5,-,N/A,,Overcast,240,2013-02-15 02:55:00
9:15 PM,32.9,29.1,86,29.97,10.0,WSW,4.6,-,N/A,,Overcast,240,2013-02-15 03:15:00
9:35 PM,34.0,28.4,80,29.98,10.0,WSW,5.8,-,N/A,,Overcast,250,2013-02-15 03:35:00
9:55 PM,33.8,29.3,84,29.98,10.0,West,6.9,-,N/A,,Overcast,260,2013-02-15 03:55:00
10:15 PM,34.2,29.1,82,29.98,5.0,WNW,10.4,-,N/A,Snow,Light Snow,290,2013-02-15 04:15:00
10:35 PM,32.9,30.0,89,29.98,1.8,West,8.1,-,N/A,Snow,Light Snow,270,2013-02-15 04:35:00
10:55 PM,32.5,30.6,92,29.98,10.0,West,6.9,-,N/A,,Overcast,270,2013-02-15 04:55:00
11:15 PM,32.4,30.2,92,29.98,10.0,West,4.6,-,N/A,,Overcast,260,2013-02-15 05:15:00
11:35 PM,32.2,30.2,92,29.98,10.0,West,4.6,-,N/A,,Overcast,260,2013-02-15 05:35:00
11:55 PM,32.0,30.2,93,29.98,10.0,WSW,3.5,-,N/A,,Overcast,250,2013-02-15 05:55:00